This demonstration page uses our WeatherBlox Daily Observations layout. Learn more.

Left ArrowRight Arrow

41.55636, -103.73856

Hourly Observations for October 26, 2021

Temp ( °F °C ) Dew Point ( °F °C ) Humidity (%) Winds ( mph kmh ) Pressure ( in mb ) Visibility ( mi km ) Precip ( " mm )
12:58 am 00:58 Clear 51 10.3 40 4.4 67 67 S 15 24 29.59 1002 10 16 0.00 0.00
1:58 am 01:58 Clear 45 7.4 40 4.2 80 80 SSE 3 6 29.56 1001 10 16 0.00 0.00
2:58 am 02:58 Clear 44 6.7 39 4.1 84 84 S 16 26 29.52 1000 10 16 0.00 0.00
3:58 am 03:58 Clear 43 6 39 3.7 85 85 Calm 29.53 1000 10 16 0.00 0.00
4:58 am 04:58 Clear 42 5.3 38 3.1 86 86 S 9 15 29.49 999 10 16 0.00 0.00
5:58 am 05:58 Clear 38 3.1 37 2.5 96 96 SSE 7 11 29.49 999 10 16 0.00 0.00
6:58 am 06:58 Clear 37 2.5 35 1.7 95 95 ESE 10 17 29.49 999 10 16 0.00 0.00
7:58 am 07:58 Sunny 38 3.2 37 2.7 97 97 ESE 12 19 29.49 999 10 16 0.00 0.00
8:58 am 08:58 Sunny 40 4.4 39 3.7 95 95 E 7 11 29.47 998 10 16 0.00 0.00
9:58 am 09:58 Sunny 44 6.9 40 4.5 85 85 E 10 17 29.41 996 10 16 0.00 0.00
10:58 am 10:58 Sunny 48 8.9 40 4.5 74 74 NE 9 15 29.42 996 10 16 0.00 0.00
11:58 am 11:58 Sunny 49 9.4 40 4.2 70 70 NNW 14 22 29.47 998 10 16 0.00 0.00
12:58 pm 12:58 Sunny 50 9.8 39 4.1 68 68 WNW 10 17 29.45 997 10 16 0.00 0.00
1:58 pm 13:58 Mostly Sunny 55 12.8 40 4.4 57 57 NNW 23 37 29.44 997 10 16 0.00 0.00
2:58 pm 14:58 Mostly Cloudy 55 12.6 40 4.3 57 57 NNW 31 50 29.49 999 10 16 0.00 0.00
3:58 pm 15:58 Cloudy with Light Rain 47 8.6 45 7.2 91 91 NNW 16 26 29.58 1002 6 10 0.04 1.02
4:58 pm 16:58 Cloudy with Rain 46 7.9 43 6.3 90 90 N 16 26 29.62 1003 10 16 0.06 1.52
5:58 pm 17:58 Cloudy with Rain 43 6.2 40 4.3 88 88 NNW 25 41 29.66 1005 10 16 0.07 1.78
6:58 pm 18:58 Cloudy with Light Rain 40 4.6 38 3.2 91 91 NNW 25 41 29.76 1008 10 16 0.02 0.51
7:58 pm 19:58 Cloudy with Light Rain 38 3.1 36 2 93 93 NW 21 33 29.81 1010 10 16 0.02 0.51
8:58 pm 20:58 Cloudy with Light Rain 37 2.9 35 1.9 93 93 NNW 22 35 29.81 1009 10 16 0.02 0.51
9:58 pm 21:58 Cloudy with Light Rain 38 3.3 35 1.9 91 91 NNW 22 35 29.82 1010 10 16 0.00 0.00
10:58 pm 22:58 Windy with Rain Showers Likely 38 3.4 35 1.8 89 89 NNW 24 39 29.82 1010 10 16 0.00 0.00
11:58 pm 23:58 Windy with Rain Showers Likely 38 3.1 35 1.7 91 91 NNW 21 33 29.85 1011 10 16 0.00 0.00

Powered by AerisWeather